Wind_Speed
37 35 33 35 38 39 40 39 35 28 23 22 23 25 23 19 17 17 15 13 13 13 17 16 12 17 19 7 9 10 13 13 14 17 17 14 11 12 14 19 12 14 12 8
37 38 37 36 36 38 39 40 40 38 33 28 25 26 24 24 19 20 17 15 17 20 22 19 22 18 15 13 12 14 15 20 19 18 18 19 21 19 20 19 19 20 14 15
38 39 40 41 37 35 34 35 34 33 35 34 32 30 32 30 28 22 19 22 24 26 33 35 27 25 22 19 14 18 20 19 19 21 27 25 25 27 29 26 26 22 23 18
38 39 37 34 34 32 29 28 30 28 30 32 30 25 24 24 23 24 25 27 31 33 36 40 19 16 19 17 11 13 18 20 22 20 24 21 21 29 30 29 27 23 25 26
37 37 36 36 32 30 30 31 34 34 30 26 25 26 27 27 27 28 29 31 32 39 36 24 18 16 16 16 16 10 11 18 19 14 15 15 16 18 20 20 23 23 25 27
30 37 39 38 32 30 30 30 30 29 28 28 28 31 31 32 34 36 37 38 40 33 20 19 19 18 15 15 16 16 19 17 16 12 12 13 13 15 15 12 17 24 27 28
29 34 33 33 33 32 29 34 37 38 36 37 36 34 36 35 40 40 39 33 23 15 15 17 18 19 17 17 17 15 13 15 14 13 10 11 8 7 6 2 5 12 18 27
26 28 31 27 28 27 34 36 36 38 40 42 39 36 36 40 42 35 25 21 18 18 18 18 20 20 16 19 19 15 13 19 19 16 11 9 7 8 4 7 10 16 16 20
32 28 25 26 26 26 32 38 42 40 43 46 45 44 44 32 24 20 22 23 23 24 23 22 21 19 15 19 18 18 22 20 16 19 16 12 4 6 10 12 15 17 15 23
41 37 39 40 39 40 40 45 46 49 49 44 43 34 25 22 22 23 26 27 27 25 25 25 22 21 18 20 21 27 26 24 20 20 19 20 14 17 21 19 19 20 19 23
34 35 40 42 47 46 38 38 39 36 33 31 31 29 28 27 27 30 29 26 23 23 25 24 24 23 22 23 31 31 27 26 25 23 23 22 22 32 27 29 21 24 20 21
36 35 32 31 31 30 30 29 26 24 25 31 31 28 30 31 31 29 28 23 21 21 21 22 24 23 23 28 36 32 32 32 27 24 23 28 32 30 29 30 26 27 25 20
38 37 33 30 31 30 27 26 26 26 29 31 30 33 32 31 31 27 24 21 18 17 20 18 22 23 28 32 41 41 36 30 29 29 31 32 31 30 26 22 25 25 25 21
36 36 33 28 29 28 32 33 32 32 33 35 35 33 33 32 29 24 22 21 15 14 19 16 21 24 32 32 36 44 40 35 34 32 31 33 24 25 27 23 26 23 21 26
34 37 39 37 34 33 33 33 34 35 36 36 32 33 32 29 24 20 20 17 13 10 13 16 21 27 28 28 32 34 36 36 36 36 33 30 28 28 26 26 27 22 20 19
33 33 33 36 40 40 36 34 33 32 30 32 31 32 30 25 21 20 19 18 13 10 10 14 16 19 27 31 28 34 34 30 30 30 28 30 29 26 28 30 27 18 15 9
30 34 34 34 34 36 39 36 33 32 31 32 32 34 32 24 21 20 17 20 16 11 11 17 22 23 21 21 22 25 26 27 30 28 28 30 26 27 28 28 21 15 10 8
28 29 31 35 36 32 37 35 37 36 34 33 32 34 35 27 26 23 20 19 19 15 14 18 20 22 22 26 29 28 28 27 27 27 28 27 27 28 25 18 14 11 11 8
29 29 31 33 32 34 33 35 35 37 37 37 34 35 34 32 29 26 26 21 20 19 20 21 23 26 27 26 26 26 25 25 24 27 29 31 28 24 19 15 15 13 13 13
27 29 28 30 32 36 37 36 39 40 38 38 37 38 36 35 32 27 27 25 23 22 23 24 23 25 27 26 27 28 29 29 29 31 32 30 23 18 16 19 19 15 14 14
30 29 27 28 29 36 35 36 39 38 36 37 38 38 34 31 32 30 28 27 26 25 25 25 23 25 28 31 33 33 29 28 27 25 23 21 17 13 16 20 21 18 18 19
38 35 32 32 30 31 31 35 37 38 36 31 33 34 32 32 31 30 28 25 28 26 26 27 24 24 25 28 28 26 28 29 28 24 20 16 15 13 18 20 21 19 18 18
47 45 45 42 38 34 35 36 37 39 40 37 36 37 37 35 33 31 30 26 26 28 25 26 27 21 22 23 24 28 27 26 24 24 22 19 17 17 18 20 20 20 19 19
57 53 54 52 49 46 43 41 38 38 38 37 35 36 38 37 38 36 34 29 26 26 25 25 28 25 23 22 22 26 23 17 14 18 19 20 19 18 21 21 19 19 18 21
67 62 66 62 60 57 53 50 46 44 40 38 36 35 38 40 41 40 36 35 29 26 26 24 25 24 21 18 20 24 27 23 20 21 21 20 19 23 25 20 19 20 23 21
76 74 75 74 71 65 61 58 57 53 50 47 41 38 36 38 42 42 40 35 32 28 27 28 28 30 29 26 25 24 28 30 28 29 29 32 27 25 21 19 20 24 23 20
Wind_Direction
211 211 211 213 217 218 219 224 234 235 231 240 241 263 261 254 269 278 283 287 306 324 320 291 278 296 303 316 278 264 255 231 230 221 220 229 224 241 248 208 208 223 208 240
214 213 215 218 220 220 224 229 235 239 242 247 244 253 251 254 260 275 280 285 303 314 317 282 285 288 276 283 293 251 235 236 237 241 238 236 244 231 236 229 228 245 261 244
211 214 217 222 225 229 232 237 240 244 250 253 259 265 268 263 264 262 273 275 280 292 311 310 287 274 268 277 267 240 224 236 246 241 239 248 247 237 237 247 250 249 255 255
214 218 222 228 234 235 235 242 248 246 246 254 265 264 253 254 261 268 281 287 292 298 304 304 287 247 253 260 248 241 232 238 241 250 237 244 252 244 247 255 254 254 241 240
215 219 222 225 229 235 242 241 240 245 249 253 255 253 257 264 271 282 295 296 297 302 299 289 277 267 251 240 248 251 247 241 241 240 215 234 227 223 226 242 242 240 241 247
211 221 225 229 232 235 240 234 239 241 242 241 240 255 261 271 286 295 296 299 296 289 278 275 269 258 246 235 244 251 253 243 240 215 219 218 228 227 228 239 257 261 260 253
235 229 235 235 235 238 238 229 234 234 237 247 243 263 278 281 286 292 294 293 285 263 262 267 259 249 243 231 241 254 244 217 193 205 208 227 231 235 241 349 292 291 266 249
239 239 243 245 245 248 236 241 245 247 249 252 267 276 278 280 288 291 293 283 271 266 265 261 260 254 237 238 236 225 209 170 181 198 192 162 168 160 188 318 313 318 272 258
235 242 244 248 247 246 246 249 253 258 259 262 272 276 286 287 289 287 282 273 268 263 262 257 257 252 239 226 229 199 175 174 169 171 181 203 203 273 310 317 335 325 283 252
237 241 245 247 252 251 252 251 255 260 267 277 280 274 276 274 277 279 274 274 272 267 261 259 250 245 224 223 199 175 181 179 180 194 207 207 232 278 305 306 308 320 290 251
231 234 239 244 247 251 255 257 260 261 259 255 259 266 269 273 275 276 274 270 267 266 258 253 249 235 223 214 187 187 195 195 203 213 230 255 267 283 279 301 305 309 291 260
214 220 227 230 234 235 236 235 233 240 253 259 266 275 279 280 278 276 275 267 266 265 255 248 241 227 215 210 197 203 200 208 216 231 279 270 288 298 300 292 302 298 288 260
221 220 224 225 227 229 233 233 237 244 249 261 269 273 279 281 280 279 276 266 259 259 258 248 242 221 213 213 209 212 215 228 246 259 277 279 294 301 301 296 302 297 292 265
237 236 227 229 232 236 236 234 237 240 247 257 264 275 281 283 281 281 272 262 251 243 249 241 231 226 212 221 219 222 230 245 259 269 270 283 291 303 298 301 297 292 282 265
244 247 248 228 233 238 240 239 239 245 252 261 272 275 281 285 283 280 278 272 255 237 229 223 217 216 203 215 219 224 234 246 255 266 276 286 287 299 295 294 296 294 291 273
235 238 240 248 246 240 232 233 236 242 253 262 268 274 279 278 278 278 284 281 257 234 214 205 210 209 214 216 217 224 237 249 257 265 274 282 287 282 286 289 294 301 299 298
244 239 236 239 243 246 244 236 236 241 247 253 261 273 271 271 271 271 271 274 269 241 222 203 211 218 225 224 231 238 244 251 260 267 274 280 274 271 280 285 292 294 299 299
242 242 241 241 244 237 239 241 239 241 242 247 254 261 266 266 266 265 259 259 256 248 234 220 212 216 227 231 230 236 244 253 260 266 268 268 266 266 275 283 282 275 277 285
245 243 244 243 243 242 245 238 238 244 244 243 247 250 259 262 261 261 263 253 247 246 240 232 222 221 227 234 234 238 248 262 265 267 263 262 256 258 270 279 279 271 272 277
247 245 253 249 244 242 236 235 236 234 231 233 233 244 244 250 254 253 254 255 248 238 237 241 235 225 226 227 235 242 250 256 256 255 252 255 245 254 266 274 271 278 287 291
260 258 254 247 248 249 246 246 247 242 238 235 241 246 251 251 249 247 246 248 245 244 239 238 239 237 235 238 241 244 244 240 239 237 229 232 242 253 269 271 275 273 277 277
259 258 259 255 248 248 249 246 248 247 248 244 243 246 249 250 250 248 244 241 246 242 244 245 237 236 241 242 242 238 237 234 233 221 218 233 260 277 278 279 282 284 289 290
258 257 254 252 249 245 239 239 240 242 242 240 236 242 243 245 246 245 245 236 233 237 237 247 249 240 243 248 246 239 242 235 229 229 235 257 273 284 281 284 288 289 293 301
259 259 256 251 246 244 242 243 241 238 239 240 239 232 237 242 249 250 251 244 229 233 236 236 244 243 243 249 246 241 239 235 246 246 253 265 275 278 279 288 291 295 308 312
261 255 254 252 249 243 239 238 240 241 240 238 233 231 231 236 245 254 251 248 243 234 235 237 242 246 245 248 247 245 252 246 234 240 251 271 286 281 286 288 298 310 308 299
257 255 255 253 249 246 244 238 237 237 238 240 236 231 225 228 237 247 254 252 249 244 242 244 245 247 248 247 249 250 250 250 251 247 259 270 274 280 283 298 308 304 291 295
Height
10941 10947 10951 10955 10959 10963 10968 10971 10974 10976 10979 10981 10983 10986 10989 10989 10991 10990 10990 10991 10991 10990 10990 10989 10988 10988 10988 10988 10988 10988 10987 10988 10989 10991 10993 10996 10998 10999 11000 11001 11004 11003 11003 11006
10936 10942 10947 10951 10954 10959 10963 10966 10970 10972 10975 10977 10979 10982 10984 10985 10986 10987 10987 10986 10986 10985 10985 10984 10983 10983 10984 10984 10983 10983 10983 10984 10986 10987 10989 10991 10993 10995 10997 10998 10999 11000 11001 10999
10933 10937 10940 10944 10951 10956 10961 10965 10968 10971 10972 10973 10975 10977 10979 10981 10982 10982 10982 10981 10981 10980 10980 10979 10978 10977 10977 10977 10976 10976 10977 10980 10981 10981 10984 10985 10987 10989 10990 10992 10992 10995 10997 10998
10928 10932 10938 10944 10948 10953 10958 10961 10964 10966 10968 10970 10971 10971 10971 10973 10975 10976 10977 10976 10975 10974 10973 10971 10970 10970 10970 10970 10970 10969 10971 10973 10974 10976 10978 10980 10981 10983 10985 10986 10987 10988 10991 10991
10925 10929 10933 10938 10943 10948 10952 10955 10957 10959 10962 10964 10964 10964 10965 10966 10967 10970 10971 10970 10969 10967 10964 10962 10963 10963 10963 10964 10965 10965 10966 10968 10969 10971 10973 10975 10976 10978 10981 10983 10984 10984 10985 10988
10922 10925 10929 10934 10940 10944 10947 10950 10952 10954 10956 10957 10958 10958 10959 10960 10960 10960 10961 10962 10961 10960 10957 10956 10955 10955 10956 10958 10959 10960 10961 10963 10965 10967 10969 10971 10972 10974 10977 10979 10979 10979 10979 10979
10917 10922 10926 10931 10936 10939 10943 10945 10946 10949 10950 10950 10951 10952 10954 10956 10955 10954 10953 10952 10952 10953 10953 10952 10950 10950 10951 10952 10953 10954 10955 10957 10961 10964 10966 10967 10969 10971 10974 10975 10974 10972 10971 10970
10913 10917 10921 10926 10931 10934 10937 10939 10940 10943 10944 10944 10946 10947 10948 10949 10949 10948 10946 10946 10946 10947 10947 10948 10948 10948 10947 10947 10949 10950 10952 10954 10956 10960 10963 10965 10966 10967 10968 10970 10969 10968 10965 10964
10908 10911 10916 10920 10924 10929 10932 10932 10932 10934 10935 10935 10935 10937 10939 10940 10941 10942 10942 10941 10939 10940 10940 10941 10943 10944 10945 10944 10945 10947 10950 10953 10955 10958 10960 10961 10962 10963 10964 10962 10962 10960 10958 10956
10902 10906 10910 10914 10917 10920 10923 10924 10925 10925 10925 10924 10926 10927 10931 10933 10935 10936 10935 10934 10933 10933 10934 10934 10937 10938 10940 10941 10943 10945 10947 10949 10951 10953 10953 10955 10957 10957 10957 10956 10955 10952 10949 10948
10896 10899 10902 10906 10909 10913 10914 10914 10916 10917 10917 10916 10917 10921 10925 10928 10929 10928 10928 10928 10927 10926 10926 10928 10930 10933 10935 10937 10940 10941 10943 10944 10946 10947 10949 10951 10952 10952 10950 10949 10947 10945 10941 10939
10888 10891 10895 10899 10903 10906 10907 10908 10909 10909 10910 10908 10911 10916 10917 10918 10919 10920 10922 10921 10920 10920 10920 10921 10924 10928 10930 10933 10936 10938 10939 10939 10942 10944 10946 10947 10946 10944 10943 10942 10939 10935 10933 10931
10884 10887 10890 10893 10896 10900 10901 10903 10903 10904 10904 10904 10907 10907 10910 10911 10911 10913 10914 10914 10913 10912 10913 10916 10918 10922 10925 10928 10930 10933 10934 10936 10940 10941 10941 10941 10940 10937 10935 10934 10931 10926 10922 10921
10877 10880 10883 10886 10888 10893 10895 10897 10898 10900 10899 10898 10900 10901 10902 10904 10904 10906 10907 10907 10907 10908 10908 10910 10911 10915 10918 10921 10926 10928 10930 10932 10934 10934 10935 10935 10933 10931 10929 10926 10922 10919 10915 10912
10869 10872 10876 10878 10879 10883 10889 10891 10893 10895 10894 10893 10893 10893 10894 10896 10897 10899 10900 10901 10902 10903 10904 10905 10907 10911 10913 10917 10919 10923 10926 10928 10928 10929 10929 10928 10926 10924 10921 10917 10915 10912 10909 10905
10860 10864 10868 10870 10873 10876 10880 10883 10885 10886 10887 10887 10886 10885 10888 10890 10891 10892 10893 10895 10897 10898 10900 10901 10903 10905 10909 10911 10914 10917 10920 10922 10923 10924 10923 10921 10918 10917 10914 10912 10910 10907 10904 10901
10852 10855 10857 10860 10865 10869 10872 10874 10877 10878 10881 10882 10879 10879 10879 10884 10885 10886 10887 10888 10890 10893 10895 10896 10898 10901 10904 10907 10910 10912 10914 10916 10917 10916 10916 10913 10913 10912 10910 10908 10905 10904 10902 10899
10842 10844 10847 10849 10853 10860 10858 10865 10867 10870 10872 10873 10874 10871 10872 10877 10878 10879 10881 10883 10885 10887 10889 10891 10892 10895 10898 10900 10903 10906 10908 10910 10910 10909 10908 10908 10908 10907 10906 10903 10901 10900 10899 10896
10832 10835 10837 10840 10842 10846 10849 10853 10856 10859 10862 10865 10867 10864 10865 10867 10870 10872 10875 10878 10879 10880 10882 10884 10887 10890 10893 10895 10898 10899 10901 10901 10901 10902 10903 10902 10902 10901 10899 10897 10897 10895 10893 10891
10824 10827 10829 10830 10832 10835 10834 10841 10843 10845 10849 10852 10854 10853 10856 10857 10861 10866 10867 10871 10873 10874 10875 10877 10881 10883 10886 10889 10891 10893 10894 10894 10894 10894 10896 10896 10897 10896 10894 10894 10893 10890 10889 10888
10812 10815 10820 10820 10824 10824 10829 10832 10833 10836 10840 10842 10843 10844 10847 10850 10853 10856 10860 10863 10866 10869 10869 10871 10874 10877 10879 10881 10883 10884 10885 10886 10887 10887 10888 10890 10891 10890 10889 10889 10887 10885 10884 10883
10802 10804 10808 10809 10814 10816 10818 10820 10822 10826 10827 10832 10832 10835 10838 10840 10844 10848 10852 10856 10859 10860 10863 10864 10866 10869 10871 10874 10876 10878 10878 10880 10881 10881 10882 10883 10884 10882 10882 10881 10880 10879 10877 10876
10788 10793 10794 10797 10800 10805 10806 10809 10811 10814 10816 10819 10823 10826 10828 10831 10834 10838 10842 10848 10851 10853 10855 10857 10858 10863 10865 10867 10869 10869 10871 10872 10872 10874 10875 10876 10876 10877 10875 10874 10874 10873 10872 10870
10768 10774 10775 10780 10785 10789 10793 10795 10800 10803 10805 10809 10813 10818 10820 10822 10824 10828 10831 10836 10842 10845 10848 10850 10852 10855 10858 10860 10861 10862 10863 10864 10866 10868 10869 10869 10870 10869 10869 10869 10867 10866 10864 10863
10745 10754 10751 10758 10763 10769 10776 10781 10785 10788 10792 10797 10802 10807 10811 10813 10815 10817 10821 10825 10831 10836 10839 10843 10844 10846 10849 10851 10852 10853 10855 10857 10858 10859 10860 10861 10862 10864 10863 10862 10861 10859 10858 10858
10717 10726 10728 10733 10740 10750 10757 10764 10768 10774 10778 10783 10789 10795 10799 10803 10806 10808 10810 10815 10820 10826 10830 10833 10836 10838 10840 10843 10844 10845 10846 10849 10850 10851 10853 10855 10856 10855 10855 10854 10853 10854 10855 10855